Wind_Speed
54 57 61 64 62 58 53 49 44 40 37 36 36 36 35 34 35 35 34 34 33 33 33 32 32 33 34 35 34 31 29 28 25 22 24 25 24 21 20 18 19 19 21
56 59 62 59 52 45 43 41 38 37 35 35 34 34 34 33 32 31 30 29 28 28 29 28 28 28 28 27 26 24 23 23 22 19 21 22 20 16 13 11 12 13 15
58 60 57 48 40 38 38 38 39 39 39 38 38 37 37 36 34 34 33 32 31 30 28 28 27 26 24 22 20 19 19 19 19 17 18 20 19 16 13 11 11 12 12
58 55 46 37 34 34 37 38 39 40 41 41 41 41 40 39 39 38 37 36 35 33 30 28 27 24 21 19 18 18 19 18 18 16 17 19 19 17 14 12 12 12 11
55 44 34 31 31 34 36 36 38 41 43 44 44 44 42 41 40 39 38 37 36 33 32 30 27 24 21 19 18 18 19 19 19 18 17 18 17 17 15 14 13 12 10
42 31 27 28 30 32 33 36 39 42 44 46 45 43 41 38 38 37 36 35 34 31 30 29 27 23 20 19 18 18 18 17 16 16 15 15 14 15 16 14 13 11 8
26 22 23 26 28 30 33 36 40 43 45 46 43 38 35 34 34 34 34 32 31 30 28 28 26 22 19 18 17 16 14 13 12 11 10 10 10 10 11 11 11 9 5
19 20 23 25 27 31 34 38 42 44 45 44 41 37 35 34 34 33 32 31 30 29 27 26 25 22 19 17 15 13 12 12 12 10 9 9 10 9 10 11 10 6 2
18 21 22 25 29 33 37 42 44 44 43 42 39 37 37 36 34 32 30 28 27 27 26 25 23 21 19 16 13 11 11 13 12 10 10 11 11 11 13 13 10 7 4
18 20 24 28 32 36 41 44 45 44 41 39 37 37 37 37 34 32 28 25 24 24 24 24 22 19 17 14 12 10 11 12 10 8 10 14 13 14 16 15 12 8 5
19 23 26 31 35 40 44 46 44 42 41 39 38 37 37 35 33 31 27 22 21 21 22 22 20 17 15 12 10 9 8 6 2 8 15 18 17 15 14 14 12 9 6
22 26 30 34 39 43 45 45 43 42 41 40 38 37 37 35 31 29 27 22 18 18 19 18 17 14 14 12 10 7 3 2 8 15 18 18 16 13 10 12 13 9 7
25 29 33 38 42 44 44 43 42 42 42 41 38 37 36 33 29 28 26 22 18 15 15 14 13 12 12 11 10 8 6 9 13 17 17 16 14 12 13 14 14 12 11
27 32 36 40 43 44 44 42 41 42 42 41 39 35 33 30 26 25 24 23 19 13 10 9 8 10 11 12 12 11 11 12 14 15 16 14 14 15 17 19 17 15 14
29 33 38 41 43 43 43 42 41 41 41 39 37 33 30 27 24 22 22 22 17 8 5 5 5 9 11 14 16 16 14 14 14 15 15 14 15 17 19 20 19 17 17
30 35 39 40 41 42 42 41 41 41 39 37 34 31 28 27 25 23 21 20 13 2 3 3 4 9 12 15 19 18 16 13 14 15 15 15 17 20 21 21 19 18 19
32 36 38 39 41 41 41 42 43 41 38 36 33 30 27 26 24 22 19 15 9 4 4 3 4 7 10 14 19 20 18 16 16 18 19 19 19 21 21 21 19 18 19
33 36 38 40 41 41 41 43 42 40 39 36 32 28 25 23 22 20 17 13 7 6 5 4 5 7 9 12 18 21 21 19 18 18 19 18 18 20 21 21 20 19 18
34 36 39 40 40 41 42 43 41 39 38 35 30 26 23 21 21 20 16 12 9 8 7 5 6 8 9 11 15 20 23 22 20 18 17 17 18 21 21 21 20 17 16
34 37 39 40 40 40 41 41 40 39 37 33 28 24 22 20 20 18 13 10 9 8 7 6 7 9 9 10 13 18 21 23 21 19 17 17 18 21 21 20 18 15 13
35 37 39 39 38 38 40 41 40 39 37 33 29 27 24 21 20 18 13 9 9 9 8 7 7 10 11 11 14 16 18 19 18 17 17 18 20 21 22 20 17 14 13
34 36 37 37 36 37 39 41 40 39 37 34 32 31 27 23 20 18 15 11 9 11 12 11 8 10 12 12 13 14 14 14 14 14 16 18 21 22 22 20 17 14 13
33 34 36 36 35 36 38 39 39 38 36 35 33 32 29 25 22 20 18 15 12 10 11 12 11 11 13 13 12 12 12 12 12 13 15 18 21 22 22 20 18 16 15
32 33 35 35 35 35 37 38 38 37 36 34 33 32 30 26 22 20 19 17 15 13 12 12 12 11 12 13 12 11 10 10 11 13 14 16 18 20 21 20 20 19 19
31 32 34 34 34 35 36 37 37 36 36 35 33 32 30 28 25 22 19 17 15 15 15 14 13 12 12 13 13 12 11 10 10 12 15 16 17 18 20 21 21 21 20
30 32 34 34 34 35 35 36 36 37 36 36 34 33 31 29 27 25 22 19 17 17 18 18 16 15 12 12 13 14 12 11 10 11 13 16 18 18 18 20 20 20 20
Wind_Direction
308 309 311 312 312 313 314 316 317 317 314 311 308 306 306 305 304 303 304 303 303 302 301 299 296 292 289 286 283 280 281 286 288 280 272 275 282 284 282 274 269 266 266
310 312 313 314 314 315 317 319 322 323 322 318 314 311 309 306 303 302 302 302 304 306 308 307 304 300 295 289 283 279 280 285 290 281 269 270 275 280 282 276 275 273 271
311 313 314 314 315 316 319 321 322 323 323 321 316 312 307 302 297 295 294 294 295 298 302 306 305 304 301 294 285 278 280 287 291 282 269 267 268 269 269 269 271 276 276
312 314 314 313 315 317 320 323 325 327 326 323 318 313 307 302 297 294 292 290 290 290 292 296 300 300 298 292 284 278 279 283 289 286 272 267 264 262 263 266 272 275 277
313 312 311 311 314 318 322 326 329 330 329 325 320 314 309 305 300 295 291 290 287 286 286 287 291 294 292 288 284 280 281 283 284 282 274 266 263 258 261 264 264 262 269
311 309 309 311 316 321 325 329 331 332 332 329 324 319 315 311 306 301 294 288 286 284 282 282 283 286 287 285 284 285 286 286 285 281 270 260 259 256 258 252 245 242 258
310 308 310 315 320 323 327 331 333 334 333 331 326 323 321 320 315 310 303 293 287 283 280 278 278 277 280 282 281 287 290 291 291 283 260 243 242 245 239 224 214 216 257
310 311 315 320 323 326 330 332 333 334 334 332 327 323 322 323 321 316 310 300 290 284 279 277 275 272 273 276 274 278 283 290 292 278 243 220 218 222 200 188 188 196 227
313 317 321 324 326 329 331 332 332 332 333 332 328 324 324 323 320 317 312 305 297 288 282 277 273 267 264 269 268 270 280 290 291 272 231 206 201 198 179 170 164 159 151
318 323 325 326 328 330 331 332 332 332 331 329 326 325 325 324 323 320 314 304 298 293 287 280 271 262 256 260 259 266 285 294 284 243 203 183 178 173 167 164 160 152 144
324 327 327 327 329 331 333 333 333 332 331 330 327 326 326 325 323 325 323 310 297 293 290 284 273 256 246 244 245 261 287 303 257 178 171 168 167 163 161 164 163 154 142
330 329 328 329 331 333 333 333 332 332 333 332 330 327 327 326 324 327 330 324 305 292 287 284 274 252 237 226 224 237 251 132 133 145 154 162 165 165 164 166 163 152 144
331 329 330 331 333 333 334 334 334 334 334 335 333 330 328 327 324 325 331 332 319 297 287 285 272 243 223 205 196 193 176 151 144 146 150 153 156 156 154 155 156 147 139
330 330 333 335 335 335 336 339 338 336 337 338 337 335 333 330 327 325 328 330 324 302 278 275 260 224 201 180 169 164 161 158 154 152 153 151 148 144 146 150 151 145 133
331 334 338 338 338 338 340 343 341 340 340 341 341 340 338 337 337 336 335 335 332 303 251 245 230 203 183 169 163 159 157 156 159 160 155 147 146 145 147 150 149 143 133
338 341 342 342 343 344 343 344 344 344 344 345 344 343 342 345 347 347 346 346 349 349 177 187 198 195 182 168 165 163 163 163 164 161 155 149 148 149 150 150 149 143 137
344 345 346 347 348 348 347 346 346 348 347 347 347 347 348 350 352 352 353 356 10 70 124 142 169 188 185 170 168 167 164 161 156 153 149 145 146 150 152 153 152 147 144
347 348 350 351 351 352 352 351 351 352 351 352 352 354 356 358 0 2 5 12 38 83 98 115 145 170 176 164 167 171 168 163 156 150 149 150 152 154 155 155 155 153 153
351 352 353 354 356 356 356 356 356 356 356 357 358 2 4 7 9 10 18 32 58 78 83 90 126 152 166 157 156 170 175 173 168 163 159 159 162 163 161 160 160 161 164
354 355 357 359 0 1 1 2 2 2 3 6 10 11 10 10 11 12 20 38 51 56 61 79 112 137 154 156 153 160 169 174 175 175 176 175 175 174 172 170 170 172 177
355 357 0 2 4 6 7 7 8 9 11 15 16 15 13 13 16 21 30 49 52 51 54 75 108 128 142 152 148 151 161 170 177 184 188 190 188 185 183 183 184 187 189
356 360 3 5 7 9 11 12 12 14 17 20 21 21 22 26 31 37 45 60 65 61 57 64 92 121 133 149 154 152 156 165 175 185 192 192 190 189 191 194 198 200 195
360 3 5 7 10 12 13 14 15 17 20 24 26 27 31 36 43 46 51 59 65 65 60 60 74 102 124 140 155 159 159 162 166 175 182 185 186 189 193 198 201 198 189
3 6 9 10 13 15 15 16 18 20 23 26 29 31 34 38 43 47 51 58 63 63 64 66 72 89 113 128 140 152 159 160 161 165 172 178 182 186 190 192 189 184 181
7 10 12 14 17 18 19 20 22 25 27 30 32 34 37 41 44 46 49 55 62 66 70 73 78 87 106 122 131 139 146 151 155 159 162 165 170 175 179 181 178 174 175
13 15 16 18 19 20 21 22 25 28 31 33 34 36 38 41 43 45 49 56 68 78 80 79 78 83 99 120 131 138 142 144 148 156 163 163 162 162 164 166 167 169 175
Height
5733 5726 5718 5709 5699 5688 5679 5668 5658 5649 5641 5635 5629 5624 5618 5613 5608 5602 5597 5593 5589 5585 5580 5577 5574 5571 5568 5566 5564 5563 5563 5561 5560 5561 5558 5556 5553 5551 5550 5548 5548 5548 5549
5721 5713 5705 5695 5686 5678 5670 5661 5652 5644 5636 5630 5623 5617 5611 5606 5600 5595 5591 5586 5582 5578 5574 5570 5566 5563 5560 5557 5556 5556 5556 5555 5553 5553 5551 5549 5548 5547 5546 5546 5545 5545 5545
5710 5701 5692 5684 5677 5671 5663 5655 5647 5639 5631 5624 5617 5611 5605 5599 5594 5588 5584 5580 5576 5572 5568 5564 5560 5557 5554 5551 5550 5550 5550 5549 5547 5546 5546 5544 5544 5543 5543 5543 5543 5543 5543
5699 5690 5682 5676 5670 5664 5657 5650 5642 5634 5626 5618 5611 5604 5597 5591 5585 5580 5575 5571 5567 5564 5561 5558 5555 5552 5549 5547 5546 5545 5544 5543 5542 5541 5540 5540 5539 5539 5540 5541 5541 5541 5541
5687 5679 5674 5669 5664 5658 5651 5644 5636 5628 5620 5612 5604 5596 5588 5582 5575 5570 5566 5562 5558 5556 5553 5551 5548 5546 5544 5542 5540 5539 5539 5538 5537 5536 5536 5535 5535 5536 5537 5538 5538 5539 5540
5676 5671 5667 5663 5658 5652 5646 5638 5630 5621 5612 5603 5594 5586 5579 5572 5565 5560 5555 5552 5549 5546 5544 5542 5541 5540 5538 5536 5534 5534 5533 5532 5531 5531 5531 5531 5531 5532 5533 5535 5536 5538 5539
5669 5665 5662 5658 5653 5647 5640 5632 5623 5614 5605 5595 5586 5577 5570 5563 5557 5551 5546 5542 5539 5537 5535 5534 5533 5532 5531 5530 5529 5528 5528 5527 5527 5526 5527 5528 5529 5530 5531 5533 5535 5538 5539
5665 5662 5658 5653 5647 5641 5634 5626 5617 5607 5598 5588 5578 5570 5563 5556 5550 5543 5538 5533 5530 5528 5526 5525 5525 5525 5525 5524 5524 5524 5524 5524 5523 5523 5524 5525 5527 5529 5530 5533 5536 5538 5540
5663 5659 5654 5649 5643 5636 5628 5619 5610 5600 5591 5581 5572 5564 5556 5549 5543 5536 5531 5526 5523 5520 5518 5517 5517 5518 5518 5519 5520 5520 5521 5520 5519 5519 5521 5523 5525 5528 5530 5534 5537 5539 5541
5661 5656 5651 5645 5638 5631 5622 5613 5603 5594 5584 5575 5566 5558 5550 5542 5535 5529 5524 5520 5516 5513 5511 5509 5509 5511 5513 5514 5516 5517 5517 5516 5515 5515 5518 5522 5525 5528 5531 5534 5538 5540 5542
5658 5653 5647 5641 5633 5625 5615 5606 5597 5588 5578 5569 5560 5551 5543 5536 5529 5522 5517 5513 5509 5507 5505 5504 5504 5505 5508 5511 5513 5514 5514 5513 5512 5514 5518 5523 5526 5530 5533 5536 5539 5542 5544
5656 5650 5644 5636 5628 5618 5609 5600 5591 5582 5572 5563 5554 5545 5537 5529 5522 5517 5511 5506 5503 5501 5500 5499 5499 5501 5504 5507 5510 5512 5513 5513 5514 5516 5520 5524 5528 5532 5535 5538 5541 5544 5546
5653 5647 5640 5631 5622 5613 5603 5594 5584 5575 5566 5556 5547 5539 5530 5523 5516 5511 5507 5502 5498 5496 5495 5495 5496 5498 5502 5505 5508 5511 5513 5514 5517 5520 5523 5526 5529 5532 5536 5540 5543 5546 5548
5651 5644 5636 5627 5617 5607 5598 5589 5579 5569 5560 5550 5541 5533 5525 5517 5512 5507 5502 5498 5494 5491 5491 5493 5494 5496 5500 5503 5507 5510 5513 5515 5518 5522 5525 5528 5531 5534 5537 5541 5545 5549 5552
5648 5640 5631 5622 5612 5602 5594 5585 5575 5565 5555 5546 5536 5528 5521 5514 5508 5503 5498 5493 5489 5487 5488 5491 5493 5496 5499 5502 5506 5510 5514 5517 5520 5523 5527 5530 5533 5536 5540 5544 5548 5552 5555
5645 5637 5628 5618 5609 5599 5590 5582 5572 5562 5552 5542 5533 5525 5517 5511 5505 5500 5496 5491 5487 5486 5488 5490 5492 5495 5498 5502 5506 5510 5515 5518 5521 5524 5528 5532 5535 5539 5543 5547 5551 5555 5559
5642 5634 5625 5616 5607 5598 5588 5578 5568 5559 5549 5539 5530 5522 5515 5509 5504 5499 5495 5492 5489 5488 5490 5491 5493 5495 5498 5502 5506 5511 5516 5520 5523 5526 5530 5534 5538 5542 5546 5550 5554 5558 5561
5640 5632 5623 5615 5605 5596 5586 5576 5565 5555 5546 5536 5528 5521 5515 5509 5504 5500 5496 5493 5491 5491 5492 5493 5494 5497 5500 5503 5507 5511 5517 5521 5525 5529 5533 5537 5541 5545 5548 5552 5556 5560 5564
5639 5631 5622 5614 5604 5595 5585 5575 5564 5555 5545 5536 5528 5521 5516 5511 5506 5502 5499 5496 5495 5494 5495 5495 5496 5498 5502 5505 5508 5512 5517 5522 5527 5531 5535 5539 5543 5547 5551 5555 5558 5562 5566
5638 5630 5622 5613 5604 5595 5585 5575 5565 5555 5546 5537 5529 5523 5517 5513 5509 5505 5501 5500 5499 5498 5498 5498 5498 5500 5503 5507 5510 5514 5518 5522 5527 5532 5536 5540 5544 5548 5552 5556 5560 5563 5566
5637 5630 5622 5613 5605 5596 5587 5577 5567 5557 5548 5539 5532 5526 5520 5515 5511 5507 5504 5502 5502 5501 5501 5500 5501 5503 5506 5509 5513 5516 5519 5523 5527 5531 5535 5539 5544 5548 5553 5557 5560 5564 5567
5638 5630 5623 5615 5607 5598 5589 5580 5570 5561 5552 5544 5536 5529 5523 5518 5514 5510 5507 5506 5506 5505 5505 5504 5504 5506 5508 5512 5515 5518 5521 5524 5527 5530 5534 5538 5543 5548 5553 5557 5561 5564 5568
5639 5632 5625 5617 5608 5600 5592 5583 5574 5565 5557 5549 5542 5535 5529 5523 5519 5516 5513 5511 5510 5509 5509 5508 5508 5509 5511 5514 5517 5520 5523 5526 5528 5531 5534 5537 5542 5547 5552 5556 5560 5564 5567
5641 5634 5627 5619 5611 5603 5595 5587 5578 5570 5562 5555 5548 5541 5535 5530 5526 5522 5519 5516 5515 5514 5513 5512 5512 5513 5514 5516 5519 5522 5525 5528 5530 5533 5536 5539 5542 5546 5551 5556 5560 5564 5567
5643 5636 5629 5622 5614 5607 5599 5591 5583 5575 5568 5561 5554 5548 5542 5537 5532 5528 5525 5522 5520 5518 5517 5517 5517 5517 5518 5519 5521 5524 5527 5530 5533 5535 5538 5541 5544 5548 5552 5556 5560 5564 5568
5645 5639 5632 5625 5618 5611 5604 5596 5589 5581 5574 5567 5561 5555 5549 5544 5539 5535 5531 5528 5526 5524 5523 5522 5522 5522 5522 5523 5524 5527 5530 5532 5535 5538 5541 5544 5547 5550 5554 5557 5561 5565 5569